Location: Hermaringen
(48.5952°N, 10.2585°E)
Time: 20:28:41
(UTC+00:00)

S-56A Canister/Altair - Pass Details

Date: 21 February 2026
Orbit: 633 x 2484 km, 38.9° (Epoch: 13 March)

Event Time Altitude Azimuth Distance (km) Brightness Sun altitude
Exits shadow 01:16:52 11° 124° (ESE) 3,838 11.1 -46.2°
Drops below altitude 10° 01:17:22 10° 123° (ESE) 3,990 11.2 -46.2°
Sets 01:21:32 0° 117° (ESE) 5,286 11.9 -45.7°
